CZ-6A DEB, 61806

Orbit data source: Space-Track

CZ-6A DEB, 61806 is space debris in LEO originally from a launch on Tue, 06 Aug 2024 UTC launched from the Taiyaun Space Center, China (TSC). Debris objects in space refer to the collection of defunct objects orbiting the Earth. Examples of debris include non-operational satellites, rocket bodies, and fragments generated from explosions, collisions, or faulty payload assembly.

Loading next visibility...
Identifier
61806, 2024-140ABW
Orbit
LEO
Country
Flag of CNCN / PRC
Related business
Manufacturer
SAST
Mission
Spacecraft
Bus & Motor
Unknown
Mass
Unknown
Launch date (UTC)
2024-08-06 (2 years ago)
Launch vehicle
Unknown
Launch site
Taiyaun Space Center, China (TSC)
Object type
Payload
Rocket body
Debris
Shape & HBR
Unknown shape, 0.1 m
Radar Cross Section
Medium (>0.1 m² and <1 m²)

Expand to show TLE details & history
Last TLE update: 2 days ago

TLE from 2 days ago
0 CZ-6A DEB
1 61806U 24140ABW 26170.19076321  .00000406  00000-0  33247-3 0  9999
2 61806  88.4876 243.0775 0303938 339.7070  19.2216 13.68756162 89392
Epoch: 2026-06-19T04:34Z
TLE epoch observation values (Epoch: 2026-06-19T04:34:41.941Z)
Latitude
-0.00009°
Longitude
-93.02055°
Altitude
795.887 km
Speed
7.561 km/s
True Right ascension
16h 12m 18s
True Declination
0° 00' 00"
Sunlit
Object was in full shadow at epoch
Visualization orbit readout
Latitude
Unknown
Longitude
Unknown
Altitude
Unknown
Speed
Unknown
Apparent Right ascension
Unknown
Apparent Declination
Unknown
Sunlit
N/A
Visualization observer readout
Local Sidereal Time
07:19:18
Azimuth
Unknown
Elevation
Unknown
Doppler factor
Unknown
Orbital elements
Apogee altitude
1,225.346 km
Perigee altitude
776.783 km
Semi-major axis
7,379.202 km
Eccentricity
0.03039
Inclination
88.4876°
RAAN
243.0775°
Arg. of periapsis
339.707°
True anomaly
20.41075°
Mean anomaly
19.2216°
Eccentric anomaly
19.81183°
Mean motion
3.42396 °/min
Orbital period
105.14 mins
BSTAR
0.00033247
Loading maneuver chart data...
Computing Atmospheric mass density...
Loading historical data...
Loading historical data...
Loading historical data...
Loading historical data...
Loading historical data...
Loading historical data...
Loading historical data...

Documentation

Showing up to 5 results
|